Other Public Products
Issued by NWS Grand Forks, ND

Home | Current Version | Previous Version | Text Only | Print | Product List | Glossary Off
Versions: 1 2 3 4 5 6 7 8 9 10 11 12 13 14 15 16 17 18 19 20 21 22 23 24 25 26 27 28 29 30 31 32 33 34 35 36 37 38 39 40 41 42 43 44 45 46 47 48 49 50

000
FPUS83 KFGF 171410
OPUFGF
PRAIRIE TO PINES WEATHER ROUNDUP
NATIONAL WEATHER SERVICE EASTERN NORTH DAKOTA/GRAND FORKS ND
900 AM CDT THU APR 17 2014

 **SATELLITE DATA USED TO AUGMENT SKY COVER AT AUTOMATED STATIONS**
 *****  WEATHER ACROSS EASTERN NORTH DAKOTA  *****

CITY           SKY/WX    TMP DP  RH WIND       PRES   REMARKS
GRAND FORKS    SUNNY     27  19  72 N8        30.37R WCI  19
GRAND FORKS AF SUNNY     27  17  64 N8        30.37S WCI  19
GRAND CITY NWS   N/A     28 N/A N/A N7          N/A  WCI  21
BUXTON         NOT AVBL
DEVILS LAKE    SUNNY     23  10  58 CALM      30.34S
FARGO          SUNNY     30  18  60 N8        30.35R WCI  22
WAHPETON ARPT  SUNNY     30  21  69 N7        30.34R WCI  23
$$

 *****  WEATHER ACROSS CENTRAL AND WESTERN NORTH DAKOTA  *****

CITY           SKY/WX    TMP DP  RH WIND       PRES   REMARKS
JAMESTOWN      SUNNY     26  18  71 VRB3      30.33R
BISMARCK       CLOUDY    27  15  61 E10       30.32S WCI  17
MINOT          CLOUDY    25  12  58 E9        30.30F WCI  15
MINOT AFB      CLOUDY    24  12  61 E12       30.30F WCI  13
GARRISON         N/A     25  15  66 SE10      30.28F WCI  15
WILLISTON      CLOUDY    28  21  75 SE18      30.20F WCI  15
DICKINSON      CLOUDY    29  20  69 SE16      30.17F WCI  17
HETTINGER      LGT SNOW  27  24  89 SE14      30.20S FOG     WCI  16
$$

 *****  OTHER OBSERVATIONS NORTHEAST NORTH DAKOTA  *****

CITY           SKY/WX    TMP DP  RH WIND       PRES   REMARKS
WALHALLA         N/A     23  14  68 N7        30.40S WCI  15
LANGDON        FAIR      27  12  54 E5        30.33S WCI  21
CAVALIER       FAIR      23  14  68 N9        30.39S WCI  13
GRAFTON        FAIR      25  18  74 N9        30.38S WCI  15
CANDO          FAIR      23  14  68 NE3       30.35S
FORT TOTTEN      N/A     26  15  64 CALM      29.95S
ROLLA          FAIR      23  10  58 NE5       30.33S WCI  17
RUGBY          FAIR      23  12  63 E9        30.33S WCI  13
 ***** THE ABOVE OBSERVATIONS ARE NON NWS ARE NOT QUALITY
        CONTROLLED AND MAY MIS-REPORT RAIN FOR SNOW...
$$

 *****  OTHER OBSERVATIONS SOUTHEAST NORTH DAKOTA *****

CITY           SKY/WX    TMP DP  RH WIND       PRES   REMARKS
COOPERSTOWN    FAIR      25  18  74 NE6       30.33S WCI  18
VALLEY CITY    NOT AVBL
OAKES          FAIR      27  19  74 N8        30.34S WCI  18
GWINNER        SUNNY     30  21  69 N9        30.35R WCI  22
SHEYENNE NWR     N/A     31  20  62 N6        29.95
BUFFALO        NOT AVBL
WYNDMERE       NOT AVBL
 ***** THE ABOVE OBSERVATIONS ARE NON NWS ARE NOT QUALITY
       CONTROLLED AND MAY MIS-REPORT RAIN FOR SNOW...
$$

  *****  WEATHER ACROSS NORTHERN MINNESOTA  *****

CITY           SKY/WX    TMP DP  RH WIND       PRES   REMARKS
FLAG ISLAND    SUNNY     21   9  58 N6        30.35S WCI  14
WARROAD        SUNNY     25   7  46 NE7       30.36R WCI  17
ROSEAU         SUNNY     27  10  50 NE9       30.35S WCI  17
HALLOCK        CLOUDY    27  12  54 N5        30.37S WCI  21
THF RVR FALLS  SUNNY     30   9  40 N3        30.34S
HALSTAD          N/A     31  16  53 N9          N/A  WCI  23
FOSSTON        SUNNY     27  16  63 CALM      30.32R
BAUDETTE       SUNNY     28   8  43 NE6       30.33R WCI  22
WASKISH        SUNNY     30  14  51 N5        30.30S
CROOKSTON      SUNNY     28  16  59 N7        30.36S WCI  21
$$
  *****  WEATHER ACROSS CENTRAL AND WEST MINNESOTA  *****

CITY           SKY/WX    TMP DP  RH WIND       PRES   REMARKS
BEMIDJI        SUNNY     28  10  48 N8        30.27S WCI  20
PARK RAPIDS    SUNNY     27  15  61 N10       30.26R WCI  17
WADENA         SUNNY     27  16  63 N10       30.26S WCI  17
DETROIT LAKES  SUNNY     30  19  64 N5        30.30R
MOORHEAD       NOT AVBL
FERGUS FALLS   SUNNY     28  16  59 N6        30.30R WCI  22
ELBOW LAKE     FAIR      27  19  72 N7        30.30R WCI  20
MORRIS MN      SUNNY     27  19  74 N12       30.29R WCI  16
STAPLES        PTSUNNY   25  18  74 N8        30.25R WCI  16
WHEATON        SUNNY     30  25  80 NW8       30.35R WCI  23
$$
  *****  WEATHER ELSEWHERE ACROSS MINNESOTA  *****

CITY           SKY/WX    TMP DP  RH WIND       PRES   REMARKS
DULUTH         CLOUDY    26  21  81 N14       30.15R WCI  14
INTRNTL FALLS  SUNNY     25  12  58 NE9       30.29S WCI  15
ELY            LGT SNOW  25  21  86 N7        30.20S WCI  17
CLOQUET        CLOUDY    27  21  80 N9        30.17R WCI  17
BRAINERD       PTSUNNY   32  20  61 N10       30.23R WCI  24
HIBBING        CLOUDY    27  20  75 N14       30.21R WCI  16
ALEXANDRIA     SUNNY     26  17  68 N9        30.27R WCI  17
SAINT CLOUD    CLOUDY    29  21  72 N8        30.23R WCI  21
MINNEAPOLIS    CLOUDY    29  27  92 NW14      30.19R WCI  18
$$

  *****  WEATHER ACROSS SOUTH DAKOTA  *****

CITY           SKY/WX    TMP DP  RH WIND       PRES   REMARKS
SIOUX FALLS    SUNNY     27  21  78 N12       30.31R WCI  17
BROOKINGS      NOT AVBL
WATERTOWN      SUNNY     23  17  78 N9        30.29R WCI  13
HURON          SUNNY     26  20  77 N7        30.33F WCI  18
SISSETON         N/A     27  19  72 NW13      30.33R WCI  16
ABERDEEN       SUNNY     25  20  81 NE8       30.34S WCI  16
MITCHELL       SUNNY     30  22  72 N6        30.34S WCI  24
PIERRE         CLOUDY    29  23  78 E6        30.29S WCI  23
MOBRIDGE       SUNNY     27  15  61 E9        30.28R WCI  18
RAPID CITY     CLOUDY    32  27  80 SE18      30.15S WCI  20
$$

  *****  SOME WEATHER IN NEARBY STATES *****

CITY           SKY/WX    TMP DP  RH WIND       PRES   REMARKS
GLASGOW MT     PTSUNNY   29  23  78 E22       30.06S WCI  15
GREAT FALLS MT CLOUDY    42  32  67 SW9       29.87S
CHEYENNE WY    FOG       30  30 100 SW7       30.08S VSB 1/2 WCI  23
SCOTTSBLUFF NE CLOUDY    34  30  85 SE9       30.16R
OMAHA NE       CLOUDY    33  24  69 NW17      30.32R WCI  22
DES MOINES IA  CLOUDY    36  27  69 N16       30.25R
DAVENPORT IA   CLOUDY    40  33  76 W15       30.17R
CHICAGO IL     MOSUNNY   49  29  46 SW18      30.14S
EAU CLAIRE WI  CLOUDY    36  34  92 NW8       30.09R
LA CROSSE WI   CLOUDY    44  37  76 NW13      30.09R
$$

  *****  SOME NATIONAL WEATHER *****

CITY           SKY/WX    TMP DP  RH WIND       PRES   REMARKS
LA GUARDIA NY  MOSUNNY   39  24  55 NE17      30.74R
RALEIGH NC     PTSUNNY   46  30  53 NE13      30.56R
ATLANTA GA     PTSUNNY   49  34  56 E18G24    30.41S
NEW ORLEANS LA PTSUNNY   62  54  74 NE12      30.17F
OKLAHOMA CITY  CLOUDY    53  37  54 E8        30.18R
ALBUQUERQUE NM SUNNY     49  29  46 E6        30.13R
SALT LAKE CITY MOSUNNY   44  26  49 S10       30.06R
LOS ANGELES CA CLOUDY    61  52  72 E6        29.87S
BOISE ID       SUNNY     46  23  40 SE13      29.94F
SEATTLE WA     LGT RAIN  50  49  96 SE8       29.87F
$$

*** WEATHER ACROSS MANITOBA...SASKATCHEWAN AND ONTARIO ***
                ***ONTARIO***

CITY           SKY/WX    TMP DP  RH WIND       PRES   REMARKS
GERALDTON      CLOUDY    23   9  54 E7        30.38F WCI  15
THUNDER BAY    SNOW      28  27  93 NE17      30.26F VSB 1/2 WCI  16
SIOUX LOOKOUT  PTSUNNY   21   1  42 NE2       30.36F
TORONTO        MOSUNNY   39  19  45 E16G22    30.53F
BIG TROUT LK   NOT AVBL
PICKLE LAKE    MOSUNNY   18  -2  41 CALM      30.42S
DRYDEN         SUNNY     23   5  46 NE8       30.34F WCI  14
KENORA         SUNNY     21   5  49 NE6       30.36R WCI  14
$$
                *** MANITOBA***

CITY           SKY/WX    TMP DP  RH WIND       PRES   REMARKS
BRANDON        SUNNY     19   9  63 E8        30.39S WCI   9
DAUPHIN          N/A     21  12  68 N2        30.41F
ISLAND LAKE    MOSUNNY   16   5  62 CALM      30.44S
PILOT MOUND      N/A     23  14  68 NE5         N/A  WCI  17
THE PAS        SUNNY     14   3  62 S6        30.39S WCI   5
THOMPSON       SUNNY     16   1  53 W6        30.37F WCI   7
WINNIPEG       SUNNY     19  10  68 N3        30.42R
LYNN LAKE      SUNNY     18  -2  41 W3        30.31S
CHURCHILL      MOSUNNY   18   5  57 W20G25    30.13R WCI   1
GILLAM         MOSUNNY   19   1  45 W7        30.34S WCI  10
$$
                ***SASKATCHEWAN***

CITY           SKY/WX    TMP DP  RH WIND       PRES   REMARKS
ESTEVAN        CLOUDY    25  16  68 SE15      30.25F WCI  12
KINDERSLEY     LGT SNOW  27  21  80 SE23G29   29.94F BLWGSNOWWCI  12
LLOYDMINSTER   LGT SNOW  23  21  93 E15G22    29.99F FOG     WCI  10
PRINCE ALBERT  PTSUNNY   19  12  73 E8        30.24F WCI   9
REGINA         CLOUDY    27  14  59 SE21G28   30.20F WCI  13



USA.gov is the U.S. government's official web portal to all federal, state and local government web resources and services.